Location: Biharia
(46.4333°N, 22.8000°E)
Time: 23:42:55
(UTC+00:00)

ARGOS - Pass Details

Date: 16 October 2021
Orbit: 820 x 835 km, 98.4° (Epoch: 05 December)

Event Time Altitude Azimuth Distance (km) Brightness Sun altitude
Rises 17:27:53 0° 183° (S) 3,349 6.3 -19.3°
Reaches altitude 10° 17:30:19 10° 190° (S) 2,423 5.6 -19.7°
Maximum altitude 17:35:26 44° 262° (W) 1,139 4.3 -20.6°
Drops below altitude 10° 17:40:37 10° 334° (NNW) 2,450 6.0 -21.4°
Sets 17:43:06 0° 341° (NNW) 3,390 6.7 -21.9°
